Location: Unspecified
(54.1780°N, 0.0000°E)
Time: 18:26:30
(UTC+00:00)

Explorer 7 - Pass Details

Date: 25 June 2019
Orbit: 485 x 680 km, 50.3° (Epoch: 18 July)

Event Time Altitude Azimuth Distance (km) Brightness Sun altitude
Rises 13:55:42 0° 277° (W) 2,941 10.9 52.7°
Reaches altitude 10° 13:58:54 10° 254° (WSW) 2,062 10.5 52.3°
Maximum altitude 14:01:31 15° 220° (SW) 1,781 10.4 52.0°
Drops below altitude 10° 14:04:11 10° 187° (S) 2,096 10.4 51.7°
Sets 14:07:30 0° 164° (SSE) 3,020 10.8 51.4°
